This is the latest recevied weather packets stored in our database for station/object W4GAP. If no packets are shown the sender has not sent any weather packets the latest 10 day(s).
| Time | Temp. | Humidity | Pressure | Rain* | Wind** | Luminosity | Snow |
|---|---|---|---|---|---|---|---|
| 1777583711 | 20° C | 62% | 1008 hPa | 0 mm | - | 53 W/m² | - |
| 1777583410 | 20° C | 64% | 1008.1 hPa | 0 mm | - | 60 W/m² | - |
| 1777583109 | 20.56° C | 63% | 1008.1 hPa | 0 mm | - | 67 W/m² | - |
| 1777582806 | 20.56° C | 63% | 1008.2 hPa | 0 mm | - | 58 W/m² | - |
| 1777582503 | 20.56° C | 63% | 1008.2 hPa | 0 mm | - | 63 W/m² | - |
| 1777582196 | 20.56° C | 62% | 1007.9 hPa | 0 mm | - | 64 W/m² | - |
| 1777581895 | 20.56° C | 63% | 1008.1 hPa | 0 mm | - | 65 W/m² | - |
| 1777581590 | 20.56° C | 63% | 1008.3 hPa | 0 mm | - | 69 W/m² | - |
| 1777581285 | 20.56° C | 65% | 1008.2 hPa | 0 mm | - | 68 W/m² | - |
| 1777580980 | 20.56° C | 64% | 1008.3 hPa | 0 mm | - | 116 W/m² | - |
| 1777580680 | 21.11° C | 63% | 1008.1 hPa | 0 mm | - | 69 W/m² | - |
| 1777580376 | 21.11° C | 63% | 1008.2 hPa | 0 mm | - | 72 W/m² | - |
| 1777580073 | 21.11° C | 65% | 1008.3 hPa | 0 mm | - | 65 W/m² | - |
| 1777579769 | 21.11° C | 64% | 1008.1 hPa | 0 mm | - | 74 W/m² | - |
| 1777579466 | 21.11° C | 64% | 1008.3 hPa | 0 mm | - | 88 W/m² | - |
| 1777579162 | 21.11° C | 64% | 1008.2 hPa | 0 mm | - | 89 W/m² | - |
| 1777578857 | 21.11° C | 64% | 1008.7 hPa | 0 mm | - | 92 W/m² | - |
| 1777578553 | 21.11° C | 64% | 1008.5 hPa | 0 mm | - | 88 W/m² | - |
| 1777578248 | 21.67° C | 63% | 1008.6 hPa | 0 mm | - | 92 W/m² | - |
| 1777577944 | 21.67° C | 61% | 1008.6 hPa | 0 mm | - | 100 W/m² | - |
| 1777577639 | 21.67° C | 63% | 1008.6 hPa | 0 mm | - | 110 W/m² | - |
| 1777577337 | 21.11° C | 63% | 1008.5 hPa | 0 mm | - | 146 W/m² | - |
| 1777577032 | 21.11° C | 63% | 1008.4 hPa | 0 mm | - | 127 W/m² | - |
| 1777576730 | 21.67° C | 59% | 1008.2 hPa | 0 mm | - | 136 W/m² | - |
| 1777576428 | 21.67° C | 62% | 1008.3 hPa | 0 mm | - | 162 W/m² | - |
* Rain latest hour (hover to see other rain measurements)
** Current wind speed in m/s (hover to see current wind gust speed)